NOAA 16 DEB, 41207

Orbit data source: Space-Track

NOAA 16 DEB, 41207 is space debris in SSO originally from a launch on Thu, 21 Sep 2000 UTC launched from the Air Force Western Test Range (AFWTR). Debris objects in space refer to the collection of defunct objects orbiting the Earth. Examples of debris include non-operational satellites, rocket bodies, and fragments generated from explosions, collisions, or faulty payload assembly.

Loading next visibility...
Identifier
41207, 2000-055DL
Orbit
SSO
Country
Flag of USUS
Related business
Manufacturer
Unknown
Mission
Spacecraft
Bus & Motor
Unknown
Mass
Unknown
Launch date (UTC)
2000-09-21 (26 years ago)
Launch vehicle
Unknown
Launch site
Air Force Western Test Range (AFWTR)
Object type
Payload
Rocket body
Debris
Shape & HBR
Unknown shape, 0.1 m
Radar Cross Section
Small (<0.1 m²)

Expand to show TLE details & history
Last TLE update: 1 day ago

TLE from 1 day ago
0 NOAA 16 DEB
1 41207U 00055DL  26125.68064030  .00026092  00000-0  33627-2 0  9999
2 41207  98.9035  26.8254 0033848  34.4613 325.8782 14.80612785546208
Epoch: 2026-05-05T16:20Z
TLE epoch observation values (Epoch: 2026-05-05T16:20:07.321Z)
Latitude
-0°
Longitude
-81.75711°
Altitude
610.772 km
Speed
7.564 km/s
True Right ascension
01h 47m 18s
True Declination
0° 00' 00"
Sunlit
Object was in daylight at epoch
Visualization orbit readout
Latitude
Unknown
Longitude
Unknown
Altitude
Unknown
Speed
Unknown
Apparent Right ascension
Unknown
Apparent Declination
Unknown
Sunlit
N/A
Visualization observer readout
Local Sidereal Time
08:30:59
Azimuth
Unknown
Elevation
Unknown
Doppler factor
Unknown
Orbital elements
Apogee altitude
648.181 km
Perigee altitude
600.776 km
Semi-major axis
7,002.615 km
Eccentricity
0.00338
Inclination
98.9035°
RAAN
26.8254°
Arg. of periapsis
34.4613°
True anomaly
325.65986°
Mean anomaly
325.8782°
Eccentric anomaly
325.76911°
Mean motion
3.70384 °/min
Orbital period
97.2 mins
BSTAR
0.0033627
Loading maneuver chart data...
Computing Atmospheric mass density...
Loading historical data...
Loading historical data...
Loading historical data...
Loading historical data...
Loading historical data...
Loading historical data...
Loading historical data...

Documentation

Showing up to 5 results
|